Powrót do katalogu

SL-19 DEB

AktywnyUNKNOWN
NORAD 23484·DEBRIS·🇷🇺 Russia

Wystrzelony Dec 26, 1994 z Baikonur Cosmodrome

Loading…

Następne Przeloty (najbliższe 24 godziny)

TLE

ŚwieżeSource: Space-Track

Epoka: Sep 14, 2026, 08:10 UTC

1 23484U 94085G   26257.34047043 -.00000601  00000-0 -16229-1 0  9994
2 23484  64.7378  15.6695 0225706 117.6970 274.9125 11.23041123297852

Śledź SL-19 DEB w czasie rzeczywistym z AllMySat

Download on the App Store